Tracking 19847 objects as of 16-Sep-2019
HD Live streaming from Space Station
objects crossing your sky now

IUS DEB

Track IUS DEB now!
10-day predictions


NORAD ID: 43367
Int'l Code: 1999-040Q
Perigee: 609.0 km
Apogee: 9,656.0 km
Inclination: 28.2 °
Period: 204.6 minutes
Semi major axis: 11503 km
RCS: Unknown
Launch date: July 23, 1999
Source: United States (US)
Launch site: AIR FORCE EASTERN TEST RANGE (AFETR)

Note: This is SATELLITE DEBRIS
aabbcc
Your satellite tracking list
Your tracking list is empty




NASA's NSSDC Master Catalog

Two Line Element Set (TLE):
1 43367U 99040Q   19209.07742747 -.00000659  00000-0 -14824-2 0  9997
2 43367  28.2238 154.9746 3932305 193.9447 151.0032  7.03654647169840
Source of the keplerian elements: AFSPC